Find Starlink 5573

NORAD ID: 55750 Int'l Des: 2023-028 Owner: SPXS Country: US Constellation: starlink operational
LEOCIRCULAR

現在のビュー

3D地球を読み込み中...

About Starlink 5573

Starlink 5573 (NORAD 55750) is a starlink constellation satellite (v1.5) launched Mar 3, 2023 by SPXS of US. It operates in LEO, CIRCULAR orbit with a mass of 305.00 kg.

Starlink 5573について

説明を読み込み中...

次回通過

Passes for default location (London). Set your location on the main map for personalized predictions.

高度履歴

Loading altitude history...

軌道要素

1 55750U 23028K 26178.46886176 -.00000637 00000-0 -45613-4 0 9998
2 55750 70.0003 327.6789 0002976 267.5560 92.5258 14.98337421182487
Epoch: Jun 27, 2026 • Age: 9 hours

現在のステータス

高度 594.5 km
速度 7.56 km/s
衛星直下点 -66.10°S, 20.55°W
打ち上げ日 Mar 3, 2023
運用期間 3.3 years
タイプ internet

技術仕様

分類 Payload
質量 305.00 kg
乾燥質量 290.00 kg
総質量 305.00 kg
長さ 0.20 m
直径 2.80 m
スパン 9.00 m
形状 Box + pan
製造者 SPXS
バスタイプ Starlink
フェーズステータス In Orbit
所有者/国 SPXS/US

Most Searched